Probability
0 0 0 0 0 2 4 4 4 2 1 1 2 3 3 2 1 0 0 0 0 0 0 0 0 0 0 0 0 0 0 0 0 0 0 0 0 0
0 0 0 0 1 3 5 6 5 5 3 2 2 2 3 2 0 0 0 0 0 0 0 0 0 0 0 0 0 0 0 0 0 0 0 0 0 0
0 1 1 1 2 5 6 7 7 7 6 3 2 3 3 2 1 0 0 0 0 0 0 0 0 0 0 0 0 0 0 0 0 0 0 0 0 0
1 2 3 3 4 6 7 8 8 9 8 5 3 3 3 2 1 0 0 0 0 0 0 0 0 0 0 0 0 0 0 0 0 0 0 0 0 0
4 4 5 6 6 8 9 9 9 10 9 7 5 4 3 1 0 0 0 0 0 0 0 0 0 0 0 0 0 0 0 0 0 0 0 0 0 0
5 6 6 7 8 9 10 10 10 10 9 9 7 5 3 1 1 0 0 0 0 0 0 0 0 0 0 0 0 0 0 0 0 0 0 0 0 0
7 7 7 7 7 8 8 8 8 8 8 9 8 6 4 2 1 1 1 0 0 0 0 0 0 0 0 0 0 0 0 0 0 0 0 0 0 0
9 9 8 8 7 6 5 5 5 4 5 7 8 6 4 2 1 0 0 0 0 0 0 0 1 1 1 0 0 0 0 0 0 0 0 0 0 0
9 10 10 9 8 6 4 4 3 3 3 5 7 7 5 2 1 0 0 0 0 0 0 0 1 1 1 0 0 0 0 0 0 0 0 0 0 0
8 9 9 9 7 5 4 5 5 4 3 3 4 4 3 2 1 0 0 0 0 0 0 0 0 0 0 0 0 0 0 0 0 0 0 0 0 0
7 7 6 5 4 2 2 4 6 6 2 0 1 1 1 1 0 0 0 1 1 1 0 0 0 0 0 0 0 0 0 0 0 0 0 0 0 0
8 7 4 2 1 0 1 3 5 5 2 1 1 1 1 0 0 0 0 1 2 1 0 0 0 0 0 0 0 0 0 0 0 0 0 0 0 0
9 8 5 2 0 0 1 2 3 3 2 2 2 2 2 1 1 0 0 1 1 1 0 0 0 0 0 0 0 0 0 0 0 0 0 0 0 0
11 9 7 3 1 0 0 1 1 1 1 3 3 3 3 3 2 1 0 0 0 0 0 0 0 0 0 0 0 0 0 0 0 0 0 0 0 0
9 7 5 3 1 0 0 0 0 0 1 2 3 3 3 3 3 2 1 1 0 0 0 0 0 0 0 0 0 0 0 0 0 0 0 0 0 0
6 5 4 3 3 2 2 1 1 0 1 2 3 3 3 3 3 3 3 3 2 1 1 1 1 1 1 1 1 1 0 1 1 1 1 1 1 0
5 5 6 7 7 6 5 4 3 1 1 2 3 3 3 3 3 4 4 5 4 3 2 2 2 2 2 2 2 2 1 2 2 2 2 2 2 1
5 6 7 8 9 8 7 6 4 3 2 3 3 3 3 3 4 5 6 6 7 6 4 3 3 3 2 2 2 2 1 2 3 3 3 3 3 2
5 6 6 7 8 7 7 6 5 4 4 4 5 4 4 4 6 7 7 8 8 8 6 4 3 3 2 2 2 1 1 1 2 2 2 2 2 2
6 6 6 5 5 6 6 6 4 4 5 6 6 6 5 6 7 8 9 9 9 9 7 4 3 2 2 1 1 1 0 0 1 1 1 1 1 1
6 6 6 4 3 4 5 5 5 5 6 7 7 7 7 8 9 9 8 8 9 9 8 5 2 1 1 0 0 0 0 0 0 0 0 0 0 0
6 5 4 4 3 4 5 6 6 6 7 8 8 8 7 8 8 8 7 7 7 7 6 4 1 0 0 0 0 0 0 0 0 0 0 0 0 0
6 5 4 3 4 5 6 6 6 7 7 8 8 7 7 7 7 7 6 6 5 5 4 3 1 0 0 0 0 0 0 0 0 0 0 0 0 0
Wind_Speed
1 1 1 1 1 2 2 2 2 1 1 1 0 1 1 2 3 3 3 5 5 5 5 5 5 5 4 4 4 3 3 3 3 3 3 4 5 5
0 0 1 1 1 1 2 2 2 2 1 1 1 1 2 3 4 4 4 6 6 6 6 5 6 6 6 6 5 5 4 4 4 4 4 4 4 4
0 0 1 1 1 1 1 1 2 2 2 1 1 1 2 3 3 3 3 3 4 6 6 7 6 6 6 6 6 6 6 5 5 4 4 4 4 4
1 1 1 1 1 1 1 2 2 2 3 2 1 1 2 3 3 3 3 3 3 6 6 6 6 6 6 6 6 5 5 5 4 4 3 4 4 4
1 1 2 1 1 1 1 1 2 2 2 3 2 2 2 2 3 3 3 2 3 4 5 5 5 5 5 6 6 5 5 4 4 4 4 4 3 4
1 1 1 1 2 1 1 1 1 2 2 3 3 2 2 2 3 3 2 2 2 2 3 3 4 5 5 5 5 5 4 3 3 3 3 4 4 4
1 1 1 1 0 1 1 1 2 2 2 3 3 2 2 3 3 3 3 2 1 1 2 1 2 2 2 3 3 4 4 3 3 3 3 3 3 4
1 1 1 1 0 1 1 2 3 3 3 3 3 3 3 3 3 4 4 3 1 1 2 1 1 1 1 1 2 3 3 3 3 3 3 3 3 3
1 1 1 1 1 1 1 2 1 2 3 3 4 4 4 4 5 4 3 2 2 2 2 1 1 1 0 1 2 3 3 3 3 3 3 3 3 3
2 2 2 1 1 1 2 1 1 1 1 2 3 3 3 4 5 5 5 3 2 1 2 2 1 1 1 0 1 2 2 3 3 3 3 3 3 3
1 1 1 1 1 2 3 2 1 1 2 2 2 2 4 5 6 5 4 4 2 2 2 2 2 1 1 1 1 1 2 3 3 3 3 3 3 3
1 1 0 1 1 2 2 2 2 1 1 2 2 2 3 4 6 5 5 4 3 2 3 3 3 2 2 1 1 1 1 2 2 3 3 3 3 2
1 1 1 1 2 2 2 2 3 2 1 2 2 2 2 2 2 3 3 4 4 2 4 4 3 3 2 1 1 1 2 1 2 2 2 3 3 3
2 2 1 2 2 2 2 2 3 3 2 1 1 1 1 2 2 2 3 2 1 2 5 5 3 4 3 2 2 1 2 2 2 2 2 2 3 3
2 2 1 1 1 1 2 3 3 2 2 2 2 1 2 2 2 2 3 2 2 1 3 4 4 4 3 3 2 2 2 2 3 3 2 3 3 2
1 1 1 2 2 1 1 2 2 2 2 2 2 1 1 1 1 2 2 2 2 1 1 2 3 4 3 3 3 3 3 3 2 3 3 3 3 4
1 1 1 0 1 1 1 1 1 1 2 1 2 2 1 1 1 2 2 2 2 2 2 1 2 2 2 3 3 3 3 3 3 3 3 3 3 4
3 2 2 2 3 2 2 2 2 2 2 2 2 2 2 2 2 2 2 3 3 3 2 2 2 2 1 1 3 4 3 3 2 3 3 3 4 3
3 3 3 3 3 3 3 3 3 3 2 3 3 3 3 3 2 2 3 3 2 2 2 2 3 3 3 3 3 5 4 3 3 3 3 4 4 4
3 4 4 3 3 3 3 3 3 3 3 3 3 3 3 3 3 3 3 3 3 3 3 3 4 4 5 4 2 3 6 5 4 4 3 3 3 3
4 4 4 4 4 4 4 4 4 3 3 3 3 4 4 4 4 4 4 4 3 3 4 4 4 4 2 1 2 2 3 5 5 4 3 2 2 2
5 5 4 4 4 4 4 4 4 4 4 4 4 4 4 4 4 5 4 4 4 4 4 3 2 2 3 4 4 3 2 2 3 4 5 5 3 4
5 5 5 5 5 4 4 5 5 5 5 5 4 4 4 4 4 4 4 4 4 4 3 3 2 2 3 3 4 3 4 3 2 2 3 5 6 7
Wind_Direction
246 230 230 233 205 205 193 184 177 190 245 215 184 76 104 97 93 101 110 112 118 120 117 113 110 110 110 113 116 123 131 137 139 147 157 163 168 173
238 261 285 274 239 205 190 191 189 179 207 198 184 131 108 100 94 96 98 104 111 114 114 111 108 104 101 97 95 94 95 106 118 124 133 139 144 145
317 222 262 269 260 228 186 183 187 173 187 208 126 116 118 110 94 93 93 92 97 102 106 105 104 102 100 99 96 93 90 93 97 108 123 131 135 141
282 274 281 281 282 243 198 201 194 182 169 171 143 137 120 123 111 104 98 96 97 97 101 103 105 103 102 99 94 90 88 87 89 91 104 122 133 138
257 248 264 256 282 282 229 208 194 171 164 158 152 126 112 124 108 100 93 82 97 103 102 101 105 106 105 103 103 99 92 85 85 85 91 101 119 132
266 250 261 252 248 253 248 220 175 158 153 157 151 140 133 132 131 127 106 85 93 101 95 99 105 111 110 111 113 109 102 94 88 92 99 106 113 119
286 285 286 296 250 212 200 186 163 153 154 156 160 151 155 158 162 151 141 124 91 120 116 109 111 105 110 124 124 116 113 116 114 104 102 111 121 124
269 291 304 314 330 92 99 139 164 171 176 176 180 180 188 174 153 157 151 150 168 167 146 127 122 123 126 136 128 129 129 128 125 116 106 111 121 130
246 263 272 283 179 147 103 104 106 124 173 185 182 196 191 180 161 159 167 169 176 157 149 141 125 126 134 125 140 151 149 146 143 134 125 116 114 130
253 246 238 266 228 163 131 103 85 77 168 184 189 197 186 170 168 163 157 136 109 122 160 162 158 154 100 111 138 163 170 165 158 152 141 128 121 121
279 269 234 238 230 160 143 136 96 44 63 107 129 144 145 151 153 141 145 150 161 180 179 168 161 149 143 158 153 151 160 164 164 161 155 151 151 148
302 318 317 218 209 171 169 164 172 230 117 92 96 109 137 152 161 172 170 168 166 182 180 171 162 161 168 172 181 177 172 176 177 177 178 178 176 165
242 271 279 207 189 186 181 182 191 169 132 124 118 119 122 134 155 174 184 181 182 193 172 167 163 167 166 163 184 197 196 189 186 192 195 194 194 190
227 246 249 201 186 184 179 173 155 139 140 140 146 155 163 169 173 173 175 180 188 184 169 169 166 171 163 166 190 188 199 203 200 209 212 199 201 207
224 225 211 163 163 173 169 160 156 156 158 166 190 213 213 198 174 155 145 135 112 122 162 185 177 167 173 180 178 180 192 214 210 211 215 213 212 206
229 153 135 125 133 149 143 156 170 174 175 190 206 211 191 171 176 172 168 163 154 166 152 176 183 174 181 186 183 197 200 203 210 220 220 224 221 217
156 118 107 137 179 205 211 190 182 174 181 200 197 192 193 190 194 187 175 168 179 190 185 163 167 177 197 183 189 207 212 223 223 213 214 229 233 226
150 181 203 206 215 215 214 218 212 210 209 204 203 201 202 201 196 183 176 180 192 199 195 181 163 156 170 216 212 211 218 227 225 211 214 228 243 237
172 205 220 222 220 217 214 219 225 222 212 206 208 208 206 205 201 197 192 194 206 212 206 185 183 188 211 239 222 204 216 222 211 211 217 224 241 244
213 217 223 227 225 224 221 221 225 219 210 210 211 212 209 206 208 210 209 211 216 220 214 202 202 205 218 235 233 217 210 215 213 220 224 231 250 261
222 226 226 229 229 226 224 220 219 220 216 210 211 209 207 208 213 217 218 215 220 223 225 227 228 213 206 183 215 224 215 213 216 216 206 219 240 245
225 226 228 227 228 227 222 219 221 221 216 214 214 211 208 210 215 215 214 215 220 227 236 243 192 172 189 210 231 237 228 222 220 218 217 210 214 231
226 225 225 228 227 223 219 220 224 225 221 218 216 215 213 213 216 216 218 221 223 228 235 232 203 200 214 220 233 241 237 227 217 218 232 236 240 251